Back to catalog

YAOGAN-39 04C

AliveMilitaryVLEO
NORAD 58145·PAYLOAD·🇨🇳 China

Launched Oct 23, 2023 from Xichang Satellite Launch Center

Loading…

Next Passes (next 24 hours)

TLE

FreshSource: Space-Track

Epoch: Sep 14, 2026, 05:41 UTC

1 58145U 23163E   26257.23747609  .00003873  00000-0  19514-3 0  9992
2 58145  34.9904 173.7604 0002288 259.4216 100.6239 15.16642825160852

Track YAOGAN-39 04C in real time with AllMySat

Download on the App Store